Location: Poughquag
(41.6090°N, 73.6820°W)
Time: 17:58:21
(UTC-04:00)

A-11 Canister half - Pass Details

Date: 31 May 2020
Orbit: 1527 x 1682 km, 47.3° (Epoch: 19 September)

Event Time Altitude Azimuth Distance (km) Brightness Sun altitude
Rises 16:48:38 0° 285° (WNW) 4,800 12.5 37.3°
Reaches altitude 10° 16:54:34 10° 258° (WSW) 3,848 12.4 36.2°
Maximum altitude 16:57:42 12° 238° (WSW) 3,712 12.0 35.6°
Drops below altitude 10° 17:00:51 10° 219° (SW) 3,880 11.7 35.0°
Sets 17:07:00 0° 191° (SSW) 4,892 11.8 33.9°
